Tracking 29932 objects as of 3-Dec-2024
HD Live streaming from Space Station
objects crossing your sky now

SAKURA 2B (CS-2B)

Track SAKURA 2B (CS-2B) now!
SAKURA 2B (CS-2B) is classified as:


NORAD ID: 14248
Int'l Code: 1983-081A
Perigee: 36,201.9 km
Apogee: 36,212.4 km
Inclination: 11.9 °
Period: 1,457.3 minutes
Semi major axis: 42578 km
RCS: 8.9693 m2 (large)
Launch date: August 5, 1983
Source: Japan (JPN)
Launch site: TANEGASHIMA SPACE CENTER (TNSTA)
Your satellite tracking list
Your tracking list is empty




NASA's NSSDC Master Catalog

Two Line Element Set (TLE):
1 14248U 83081A   24337.78313299 -.00000249  00000-0  00000-0 0  9996
2 14248  11.9351 328.1680 0001244 340.6468 202.5746  0.98814987118135
Source of the keplerian elements: AFSPC